Current weather by "City, St" or "zip code"  
 

Current Conditions: Vero Beach, Vero Beach Municipal Airport, FL

Mostly Cloudy


84.0 F

Last Updated on Oct 31 2020, 1:53 pm EDT
Humidity: 63%
Wind Speed: E 12.7 G 21.9 mph
Barometer 30.10 in
Dewpoint: 70.0 F
Visibility: 10.00 mi
Precip: --
Heat Index: 88 F
Wind Chill: NA
Current conditions at:

Vero Beach, Vero Beach Municipal Airport, FL (KVRB)

Lat: 27.65556 Lon: 80.41806

Local Radar Image active severe weather and emergency alerts image image weather storm and storm spotter reports image weather observation monitoring service image
Local
Radar
Active
Alerts
Storm Reports Obs
Monitoring

Sign-up For Email & Text Message Weather Alert Notification Services



Advertise Here

Observation History for Vero Beach, Vero Beach Municipal Airport, FL


Time Wind
(mph)
Vis
(mi)
Weather Precip (in) Temperature (F) Relative
Humidity
Wind
Chill
(F)
Heat
Index
(F)
Pressure
Air Dwpt altimeter
(in)
sea level
(mb)
Rmks
1:53 pm EDT E 12.7 G 21.9 10.00 Mostly Cloudy -- 84.0 70.0 63% NA 88 30.10 1019.3
12:53 pm EDT E 12.7 10.00 Overcast -- 83.0 69.1 63% NA 87 30.13 1020.1
11:53 am EDT NE 15.0 G 21.9 10.00 Mostly Cloudy -- 82.0 69.1 65% NA 85 30.13 1020.2
10:53 am EDT E 8.1 10.00 Overcast -- 81.0 68.0 65% NA 84 30.14 1020.5
9:53 am EDT NE 10.4 10.00 Overcast -- 79.0 68.0 69% NA NA 30.13 1020.1
8:53 am EDT NE 9.2 10.00 Overcast -- 78.0 68.0 71% NA NA 30.10 1019.3
7:53 am EDT NE 11.5 10.00 Mostly Cloudy -- 77.0 66.9 71% NA NA 30.08 1018.3
6:53 am EDT NE 11.5 10.00 Mostly Cloudy -- 76.0 66.9 74% NA NA 30.07 1018.1
5:53 am EDT NE 8.1 10.00 Overcast -- 77.0 66.0 69% NA NA 30.06 1017.7
4:53 am EDT NE 8.1 10.00 Overcast -- 76.0 66.0 72% NA NA 30.04 1017.2
3:53 am EDT NE 8.1 10.00 Overcast -- 76.0 66.0 72% NA NA 30.04 1017.1
2:53 am EDT NE 6.9 10.00 Overcast -- 76.0 66.0 72% NA NA 30.04 1017.2
1:53 am EDT NE 6.9 10.00 Overcast -- 76.0 66.0 72% NA NA 30.05 1017.3
12:53 am EDT NE 8.1 10.00 Fair -- 75.0 64.9 71% NA NA 30.04 1017.2
11:53 pm EDT NE 8.1 10.00 A Few Clouds -- 74.0 64.0 71% NA NA 30.05 1017.3
10:53 pm EDT NE 8.1 10.00 Mostly Cloudy -- 75.0 64.0 69% NA NA 30.05 1017.5
9:53 pm EDT NE 8.1 10.00 Fair -- 74.0 62.1 67% NA NA 30.04 1017.2
8:53 pm EDT NE 6.9 10.00 Fair -- 74.0 63.0 69% NA NA 30.03 1016.8
7:53 pm EDT N 9.2 10.00 Partly Cloudy -- 74.0 62.1 67% NA NA 30.01 1016.0
6:53 pm EDT N 9.2 10.00 A Few Clouds -- 74.0 63.0 69% NA NA 30.00 1015.7
5:53 pm EDT N 10.4 10.00 Partly Cloudy -- 76.0 63.0 64% NA NA 29.98 1015.2
4:53 pm EDT N 11.5 10.00 Fair -- 78.0 62.1 58% NA NA 29.97 1014.8
3:53 pm EDT N 11.5 10.00 Fair -- 79.0 64.0 60% NA NA 29.96 1014.5
2:53 pm EDT N 8.1 10.00 Mostly Cloudy -- 81.0 64.0 57% NA 83 29.96 1014.4

Regional Weather Observation


Fort Pierce, St. Lucie County International Airport, FL (KFPR)

Overcast
82.0 F

Melbourne International Airport, FL (KMLB)

Overcast
81.0 F

Cocoa - Patrick Air Force Base, FL (KCOF)

A Few Clouds
82.0 F

Okeechobee County Airport, FL (KOBE)

Overcast
81.0 F

Witham Field Airport, FL (KSUA)

Mostly Cloudy
82.0 F

Cocoa Beach, Cape Canaveral Air Force Station Skid Strip, FL (KXMR)

Fair
83.0 F